www.pogodaiklimat.ru
Время
и дата
01:53 19.10
02:53 19.10
03:53 19.10
04:53 19.10
05:53 19.10
06:53 19.10
07:53 19.10
08:53 19.10
09:53 19.10
10:53 19.10
11:53 19.10
12:53 19.10
13:53 19.10
14:53 19.10
15:53 19.10
16:53 19.10
17:53 19.10
18:53 19.10
19:53 19.10
20:53 19.10
21:53 19.10
22:53 19.10
23:53 19.10
00:53 20.10
01:53 20.10
02:53 20.10
03:53 20.10
04:53 20.10
05:08 20.10
05:53 20.10
06:44 20.10
06:53 20.10
07:08 20.10
07:24 20.10
07:53 20.10
08:06 20.10
08:53 20.10
09:53 20.10
10:53 20.10
11:53 20.10
12:14 20.10
12:15 20.10
12:53 20.10
13:53 20.10
14:53 20.10
15:53 20.10
16:53 20.10
17:53 20.10
Ветер
(напр.,м/с)
Видим. Явления Облачность Т
(С)
Тd
(С)
f
(%)
Тe
(С)
Тes
(С)
Комфортность P
(гПа)
Po
(гПа)
Тmin
(С)
Tmax
(С)
R
(мм)
R24
(мм)
S
(см)
В 1 16 км 8/2 900 м
[Ci]
+17.8 +13.3 75 +18 +18 1017.9 1015.8
В 1 16 км 8/5 1080 м
[Ci]
+18.3 +13.3 73 +19 +19 1017.7 1015.5
СВ 1 16 км 5/5 1140 м
[Ci]
+18.3 +13.3 73 +19 +19 1017.4 1015.1
СВ 1 16 км 8/8 1140 м
[Ci]
+19.4 +13.9 70 +21 +21 комфорт 1017.7 1015.5
СВ 1 16 км 8/8 1260 м
[Ci]
+18.9 +13.3 70 +20 +20 1018.2 1015.8 +17.8 +19.4
СВ 1 16 км 5/2 1200 м
[Ci]
+19.4 +13.3 68 +21 +21 комфорт 1018.4 1016.1
В 1 16 км 8/2 1200 м
[Ci]
+21.1 +14.4 66 +24 +24 комфорт 1019.0 1016.8
В 1 16 км 5/2 1200 м
[Ci]
+23.9 +15.0 57 +27 +27 жарко 1019.3 1017.2
В 1 16 км 5/0 7500 м
[Ci]
+25.0 +16.1 58 +28 +32 жарко 1019.7 1017.5
В 2 16 км 5/2 900 м
[Ci]
+26.1 +16.7 56 +30 +33 душно 1019.3 1017.2
В 2 16 км 8/8 900 м
[Ci]
+27.2 +17.2 54 +31 +33 душно 1018.7 1016.5 +17.8 +27.2
ЮВ 2 16 км 8/5 960 м
[Ci]
+27.2 +17.2 54 +31 +34 душно 1018.0 1015.8
В 2 16 км 8/5 900 м
[Ci]
+27.2 +18.3 58 +32 +34 очень
душно
1017.3 1015.1
В 3 16 км 8/8 960 м
[Ci]
+27.8 +18.9 58 +33 +34 очень
душно
1017.0 1014.8
В 3 16 км 8/5 780 м
[Ci]
+26.7 +18.9 62 +32 +32 очень
душно
1016.9 1014.8
В 3 16 км 8/2 750 м
[Ci]
+25.6 +18.9 66 +31 +31 очень
душно
1017.1 1014.8
В 2 16 км 8/2 660 м
[Ci]
+24.4 +18.9 71 +29 +29 душно 1017.4 1015.1 +24.4 +28.3
В 2 16 км 8/2 600 м
[Ci]
+23.9 +18.9 74 +29 +29 душно 1017.7 1015.5
В 2 16 км 8/0 7500 м
[Ci]
+23.9 +18.3 71 +28 +28 душно 1018.1 1015.8
В 2 16 км 8/0 7500 м
[Ci]
+23.3 +18.3 73 +29 +29 душно 1018.2 1015.8
В 1 16 км 8/0 7500 м
[Ci]
+22.8 +18.3 76 +28 +28 душно 1018.5 1016.5
В 2 16 км 8/0 7200 м
[Ci]
+23.3 +18.9 76 +30 +30 очень
душно
1018.3 1016.1
В 1 16 км 8/8 1650 м
[Ci]
+23.3 +19.4 79 +30 +30 очень
душно
1018.4 1016.1 +22.2 +24.4
В 1 16 км 5/5 1800 м
[Ci]
+23.3 +19.4 79 +30 +30 очень
душно
1017.7 1015.5
В 2 16 км 5/5 1500 м
[Ci]
+23.3 +18.9 76 +30 +30 очень
душно
1017.4 1015.1
В 1 16 км 8/8 1050 м +23.3 +19.4 79 +30 +30 очень
душно
1017.3 1015.1
В 1 16 км 8/8 720 м
[Ci]
+23.3 +20.0 82 +30 +30 очень
душно
1017.1 1014.8
В 1 16 км 10/8 450 м
[Ci]
+23.9 +20.0 79 +29 +29 душно 1017.6 1015.5
В 1 16 км 10/8 450 м
[Ci]
+23.9 +20.0 79 +29 +29 душно 1015.5
СВ 1 16 км 10/8 360 м
[Ci]
+23.3 +20.0 82 +30 +30 очень
душно
1018.1 1015.8 +22.8 +23.9
СВ 1 16 км 10/5 390 м
[Ci]
+22.8 +19.4 81 +29 +29 очень
душно
1016.1
С 1 16 км 10/5 390 м
[Ci]
+22.8 +19.4 81 +29 +29 очень
душно
1018.5 1016.1
СВ 1 14 км 10/10 210 м +22.8 +19.4 81 +29 +29 очень
душно
1016.5
СВ 2 14 км 10/5 300 м
[Ci]
+23.3 +20.0 82 +30 +30 очень
душно
1016.1
СВ 2 16 км 10/5 240 м
[Ci]
+23.9 +20.0 79 +29 +29 душно 1018.8 1016.5
СВ 1 14 км 10/8 270 м
[Ci]
+24.4 +20.0 76 +30 +30 очень
душно
1016.8
В 2 16 км 10/5 270 м
[Ci]
+25.6 +21.1 76 +32 +32 очень
душно
1019.7 1017.5
В 2 16 км 10/2 600 м
[Ci]
+26.7 +21.1 71 +34 +35 очень
душно
1019.6 1017.5
В 1 16 км 10/2 600 м
[Ci]
+27.2 +21.1 69 +34 +37 очень
душно
1019.5 1017.2
ЮВ 1 16 км 8/5 660 м
[Ci]
+28.9 +21.1 63 +36 +40 очень
душно
1019.3 1017.2 +22.8 +28.9
нст 1 16 км 8/8 690 м +29.4 +21.1 61 +37 +39 очень
душно
1016.8
нст 1 16 км 8/5 690 м
[Ci]
+29.4 +21.1 61 +37 +41 очень
душно
1016.8
ЮВ 2 16 км 8/5 750 м
[Ci]
+30.0 +20.6 57 +37 +39 очень
душно
1018.4 1016.1
нст 1 16 км 8/8 840 м
[Ci]
+30.6 +20.0 53 +37 +39 очень
душно
1017.8 1015.5
ЮВ 1 16 км 8/5 1200 м
[Ci]
+30.6 +18.9 50 +36 +39 очень
душно
1017.4 1015.1
ЮВ 1 16 км 8/5 1080 м
[Ac Ci]
+30.0 +19.4 53 +36 +38 очень
душно
1017.3 1015.1
ЮВ 1 16 км 5/2 1050 м
[Ci]
+28.9 +20.0 59 +35 +37 очень
душно
1017.2 1014.8
ЮВ 1 16 км 8/2 1050 м
[Ci]
+27.2 +20.0 65 +33 +34 очень
душно
1017.4 1015.1 +27.2 +31.1
Местоположение метеостанции Houston Hobby Airport: широта 29.6375 долгота -95.2825 высота над уровнем моря 14 м.
В архиве по умолчанию представлена погода в Хьюстоне за последние 1-2 суток. Обновление информации о фактической погоде в базе происходит ежечасно! Архивные данные за месяц целиком и за предыдущие месяцы Вы можете получить, выбрав интересующий диапазон дат из раскрывающегося списка и нажав кнопку "Ввод!".
Внимание! Архив погоды МЕТАР в базе сайта по станциям, не включенным в климатический монитор, хранится не более 60 дней. Нет смысла пытаться выбрать более раннюю дату.
*Определитесь, кто Вы:
Внимание! Время в таблицах - местное (без учета летнего времени). Для получения всемирного времени необходимо вычесть поправку, которая равна -6 ч.
Смотрите также архив погоды в соседних городах и на ближайших метеорологических станциях:
Партнеры нашего сайта:      
Пояснения к столбцам:
  • Ветер - указаны скорость ветра в м/с - средняя за 10 мин, порывы в срок и между сроками (в фигурных скобках) и направление, откуда дует ветер: С - северный,
  • СВ - северо-восточный, В - восточный, ЮВ - юго-восточный, Ю - южный, ЮЗ - юго-западный, З - западный, СЗ - северо-западный.
  • Видимость - горизонтальная дальность видимости в метрах или километрах. При видимости от 1 до 10 км при отсутствии осадков обычно наблюдается дымка, при ухудшении видимости до 1 км и менее - туман. В сухую погоду видимость может ухудшаться дымом, пылью или мглою.
  • Явления - указаны атмосферные явления, наблюдавшиеся в срок или в последний час перед сроком; фигурными скобками обозначены явления, наблюдавшиеся между сроками (за 1-3 часа до срока); квадратными скобками обозначены град или гололедные отложения с указанием их диаметра в мм.
  • Облачность - указаны через наклонную черту общая и нижняя облачность в баллах и высота нижней границы облаков в метрах; квадратными скобками обозначены формы облаков: Ci - перистые, Cs - перисто-слоистые, Cc - перисто-кучевые, Ac - высококучевые, As - высокослоистые, Sc - слоисто-кучевые, Ns - слоисто-дождевые, Cu - кучевые, Cb - кучево-дождевые. Подробнее классификацию облаков см. в Атласе облаков (PDF).
  • T - Температура воздуха - температура, измеренная на высоте 2 м над землей.
  • Td - Температура точки росы - температура, при понижении до которой содержащийся в воздухе водяной пар достигнет насыщения.
  • f - Относительная влажность воздуха - влажноcть воздуха, измеренная на высоте 2 м над землей.
  • Te - Эффективная температура - температура, которую ощущает одетый по сезону человек в тени. Характеристика душности погоды. При расчете учитывается влияние влажности воздуха и скорости ветра на теплоощущения человека.
  • Tes - Эффективная температура на солнце - температура, которую ощущает человек, с поправкой на солнечный нагрев. Характеристика знойности погоды. Зависит от высоты солнца над горизонтом, облачности и скорости ветра. Ночью, в пасмурную погоду, а также при ветре 12 м/с и более поправка равна нулю.
  • P - Атмосферное давление - приведенное к уровню моря атмосферное давление.
  • Po - Атмосферное давление - измеренное на уровне метеостанции атмосферное давление.
  • Tmin - Минимальная температура - минимум температуры воздуха на высоте 2 м над землей.
  • Tmax - Максимальная температура - максимум температуры воздуха на высоте 2 м над землей.
  • R - Количество осадков - Количество выпавших осадков за период времени, мм. При наведении курсора мыши на число - период времени, за который выпало указанное количество осадков.
  • R24 - Количество осадков - Количество выпавших осадков за 24 часа, мм.
  • S - Снежный покров - Высота снежного покрова, см. При наведении курсора мыши на число - состояние снежного покрова и степень покрытия местности в баллах.